INTELSAT 20 (IS-20)

Last updated on Sun Jun 21 2026 00:03:05 GMT+0000 (Coordinated Universal Time)

1 38740U 12043A 26171.40537204 -.00000029 00000+0 00000+0 0 9994 2 38740 0.0049 38.4447 0001322 143.5655 301.0434 1.00270360 50788
UTC large
Height (km)
Speed (km/s)
/
Latitude / Longitude
Inclination (degrees)
Orbital Period (minutes)
Azimuth
Elevation
Range (km)
Doppler Factor

Next 0 passes for location: London (51.5072 / 0.1276)

No passes found over London.
INTELSAT 20 (IS-20)